Starlink 32180

operational
NORAD ID: 60374 Int'l Des: 2024-138 Owner: SPXS Country: US Constellation: starlink
LEOCIRCULAR

关于 Starlink 32180

正在加载描述...

实时位置

正在加载3D地球...

即将过境

高度历史

Altitude vs Time

uPlot chart will show altitude changes over time

两行轨道根数

1 60374U 24138V 25260.65419648 .00002256 00000-0 88301-4 0 9995
2 60374 53.1619 33.4345 0001134 93.6204 266.4927 15.30191381 64134
Epoch: Sep 17, 2025 • Age: 25 hours

当前状态

高度 484.9 km
速度 7.62 km/s
星下点 -30.03°S, 116.05°E
发射日期 Aug 4, 2024
运行时间 1.1 years
类型 internet

技术详情

分类 Payload
质量 730.00 kg
干质量 700.00 kg
总质量 730.00 kg
长度 0.30 m
直径 4.10 m
跨度 29.00 m
形状 Box + pan
制造商 SPXS
平台类型 Starlink V2M
阶段状态 In Orbit
所有者/国家 SPXS/US

大型星座

Loading constellations...